This demonstration page uses our WeatherBlox Daily Observations layout. Learn more.

Left ArrowRight Arrow

39.01783, -85.05884

Hourly Observations for April 12, 2018

Temp ( °F °C ) Dew Point ( °F °C ) Humidity (%) Winds ( mph kmh ) Pressure ( in mb ) Visibility ( mi km ) Precip ( " mm )
12:52 am 00:52 Cloudy 56 13.3 36 2.2 47 47 SSW 12 19 29.99 1016 10 16 N/A
1:52 am 01:52 Cloudy 55 12.8 37 2.8 51 51 S 10 17 29.97 1015 10 16 N/A
2:52 am 02:52 Cloudy 54 12.2 37 2.8 53 53 S 9 15 29.96 1015 10 16 N/A
3:52 am 03:52 Cloudy 54 12.2 37 2.8 53 53 S 10 17 29.94 1014 10 16 N/A
4:52 am 04:52 Mostly Cloudy 55 12.8 36 2.2 49 49 S 12 19 29.91 1013 10 16 N/A
5:52 am 05:52 Cloudy 55 12.8 36 2.2 49 49 SSW 13 20 29.92 1013 10 16 N/A
6:52 am 06:52 Partly Cloudy 54 12.2 36 2.2 51 51 S 12 19 29.92 1013 10 16 N/A
7:52 am 07:52 Mostly Sunny 54 12.2 37 2.8 53 53 S 12 19 29.92 1013 10 16 N/A
8:52 am 08:52 Partly Cloudy 58 14.4 38 3.3 48 48 S 17 28 29.91 1013 10 16 N/A
9:52 am 09:52 Mostly Cloudy 63 17.2 38 3.3 40 40 SSW 17 28 29.90 1013 10 16 N/A
10:52 am 10:52 Sunny 67 19.4 39 3.9 36 36 SW 18 30 29.88 1012 10 16 N/A
11:52 am 11:52 Sunny 71 21.7 41 5 34 34 SSW 23 37 29.86 1011 10 16 N/A
12:52 pm 12:52 Sunny 73 22.8 41 5 32 32 SW 25 41 29.84 1010 10 16 N/A
1:52 pm 13:52 Sunny 75 23.9 41 5 29 29 SSW 20 31 29.81 1010 10 16 N/A
2:52 pm 14:52 Sunny 76 24.4 41 5 29 29 SSW 22 35 29.80 1009 10 16 N/A
3:52 pm 15:52 Mostly Sunny 78 25.6 42 5.6 28 28 SW 17 28 29.78 1009 10 16 N/A
4:52 pm 16:52 Partly Cloudy 78 25.6 40 4.4 26 26 SW 24 39 29.76 1008 10 16 N/A
5:52 pm 17:52 Mostly Cloudy 78 25.6 40 4.4 26 26 SSW 21 33 29.76 1008 10 16 N/A
6:52 pm 18:52 Mostly Cloudy 77 25 38 3.3 24 24 SSW 18 30 29.77 1008 10 16 N/A
7:52 pm 19:52 Mostly Cloudy 73 22.8 38 3.3 28 28 SSW 9 15 29.77 1008 10 16 N/A
8:52 pm 20:52 Mostly Cloudy 70 21.1 39 3.9 32 32 S 10 17 29.77 1008 10 16 N/A
9:52 pm 21:52 Mostly Cloudy 70 21.1 40 4.4 34 34 S 15 24 29.77 1008 10 16 N/A
10:52 pm 22:52 Mostly Clear 69 20.6 39 3.9 33 33 SSW 12 19 29.78 1009 10 16 N/A
11:52 pm 23:52 Mostly Cloudy 70 21.1 40 4.4 34 34 SSW 14 22 29.76 1008 10 16 N/A

Powered by AerisWeather